Regional Weather Roundup
Issued by NWS

Home | Current Version | Previous Version | Graphics & Text | Print | Product List | Glossary On
Versions: 1 2 3 4 5 6 7 8 9 10 11 12 13 14 15 16 17 18 19 20 21 22 23 24 25 26 27 28 29 30 31 32 33 34 35 36 37 38 39 40 41 42 43 44 45 46 47 48 49 50
000
ASUS43 KMPX 242201
RWRMN
WEATHER ROUNDUP FOR MINNESOTA
NATIONAL WEATHER SERVICE TWIN CITIES/CHANHASSEN MN
500 PM CDT SAT SEP 24 2016


NOTE: "FAIR" INDICATES FEW OR NO CLOUDS BELOW 12,000 FEET WITH NO
SIGNIFICANT WEATHER AND/OR OBSTRUCTIONS TO VISIBILITY. N/A MEANS
CURRENT SKY AND/OR WEATHER CONDITIONS ARE NOT AVAILABLE.

MNZ060>063-068>070-242300-
   Twin Cities Metro

CITY           SKY/WX    TMP DP  RH WIND       PRES   REMARKS
TWIN CITIES    CLOUDY    71  63  75 SE18      30.00S
ST PAUL        CLOUDY    68  63  84 SE13G25   30.02R
CRYSTAL        CLOUDY    69  62  78 E13       29.99R
BLAINE         CLOUDY    70  66  88 SE13G22   30.01R
LAKEVILLE      MOSUNNY   70  64  83 E13G20    30.00R
EDEN PRAIRIE   MOSUNNY   73  64  73 E15       29.98R
LAKEVILLE      MOSUNNY   70  64  83 E13G20    30.00R
SOUTH ST PAUL  CLOUDY    69  64  85 SE7       30.01S
LAKE ELMO      CLOUDY    68  63  83 SE10G17   30.03S
$$
MNZ001>005-007-008-013>017-022>024-027-028-242300-
   Northwest Minnesota

CITY           SKY/WX    TMP DP  RH WIND       PRES   REMARKS
BEMIDJI        CLOUDY    64  60  88 SE13G18   29.93F
HALLOCK        CLOUDY    77  68  73 SE17      29.78F
ROSEAU         CLOUDY    70  63  78 SE14      29.87F
WARROAD        PTSUNNY   68  64  88 SE13G18   29.90F
THIEF RVR FALL PTSUNNY   72  63  73 SE20      29.84F
CROOKSTON      MOSUNNY   75  66  73 SE20      29.80F
FOSSTON        CLOUDY    72  61  68 SE16G26   29.87S
DETROIT LAKES  CLOUDY    68  63  83 SE18G25   29.89R
MOORHEAD       MOSUNNY   75  64  69 SE17G23   29.81R
PARK RAPIDS    CLOUDY    66  60  81 SE13      29.93S
MAHNOMEN       FAIR      69  62  78 SE18G25   29.86S
$$
MNZ006-009>011-018-025>026-242300-
   North Central Minnesota

CITY           SKY/WX    TMP DP  RH WIND       PRES   REMARKS
BAUDETTE       CLOUDY    71  61  70 SE17G25   29.91F
FLAG ISLAND    PTSUNNY   64  61  88 SE5       29.91F
INTL FALLS     CLOUDY    66  59  78 SE12      29.99F
WASKISH        CLOUDY    66  61  82 SE13G18   29.94S
BIG FORK       CLOUDY    64  59  82 SE9       30.00F
GRAND RAPIDS   CLOUDY    63  60  90 SE7       30.01F
COOK           CLOUDY    63  57  82 SE10      30.05S
WALKER         CLOUDY    64  60  88 SE7       29.95S
$$
MNZ012-019>021-037-242300-
   Northeast Minnesota

CITY           SKY/WX    TMP DP  RH WIND       PRES   REMARKS
DULUTH         CLOUDY    62  59  90 E10       30.05F
ELY            CLOUDY    61  55  82 SE14      30.07F
HIBBING        CLOUDY    61  58  90 SE9       30.04S
EVELETH        CLOUDY    63  59  87 SE7G16    30.06F
DULUTH HARBOR  CLOUDY    61  57  88 NE16      30.06F
TWO HARBORS    CLOUDY    63  57  82 E9        30.06F
SILVER BAY     CLOUDY    61  55  82 NE7       30.09F
GRAND MARAIS     N/A     62  55  77 NE14      30.13F
G MARAIS ARPRT PTSUNNY   57  48  72 E5        30.17S
$$
MNZ029>031-032-039>041-046>048-054>057-064-242300-
   West Central Minnesota

CITY           SKY/WX    TMP DP  RH WIND       PRES   REMARKS
FERGUS FALLS   MOSUNNY   73  64  73 SE16G25   29.85S
WHEATON        PTSUNNY   81  70  69 SE12      29.82S
MORRIS         TSTM      75  68  78 SE16G22   29.85R
ALEXANDRIA     CLOUDY    70  66  87 SE15G24   29.91S
ELBOW LAKE     PTSUNNY   74  66  76 SE16G23   29.85R
GLENWOOD       CLOUDY    72  66  83 E15       29.91S
APPLETON       TSTM      79  66  65 SE9G21    29.85R
BENSON         CLOUDY    79  64  61 S10G16    29.87R
ORTONVILLE     TSTM      73  68  83 S16G22    29.85R
MADISON        RAIN      72  70  94 S12       29.90R
WILLMAR        FAIR      79  66  65 SE15      29.90S
$$
MNZ033>034-036-042>043-049>051-058-059-242300-
   Central Minnesota

CITY           SKY/WX    TMP DP  RH WIND       PRES   REMARKS
ST CLOUD       CLOUDY    68  65  90 SE12G20   29.97R
SAUK CENTRE    FAIR      69  65  88 E10G22    29.93R
PAYNESVILLE    CLOUDY    73  69  88 E12G18    29.93S
AITKIN         CLOUDY    70  59  68 SE12      29.98S
PINE RIVER     CLOUDY    64  63  94 SE13      30.00R
BRAINERD       CLOUDY    65  62  90 SE8       29.98S
STAPLES        CLOUDY    64  63  94 SE10      29.94S
LONG PRAIRIE   CLOUDY    66  63  88 E13G18    29.94R FOG
LITTLE FALLS   PTSUNNY   66  61  82 SE10G16   29.96R
BUFFALO        MOSUNNY   71  64  77 E10G20    29.98R
MAPLE LAKE     MOSUNNY   72  67  83 SE8       29.98R
HUTCHINSON     CLOUDY    78  68  71 SE12G20   29.96R
$$
MNZ037-044-045-052-053-242300-
   East Central Minnesota

CITY           SKY/WX    TMP DP  RH WIND       PRES   REMARKS
PRINCETON      CLOUDY    70  64  83 E12       30.00R
MORA           CLOUDY    64  61  88 SE7       30.03R
CAMBRIDGE      CLOUDY    70  61  73 SE5       30.00R
MOOSE LAKE     CLOUDY    64  61  88 SE6       30.01F
HINCKLEY       CLOUDY    66  63  88 SE9       30.02F
CLOQUET        CLOUDY    61  55  82 E6        30.05S
MCGREGOR       CLOUDY    64  61  88 SE9G17    30.01S
$$
MNZ071>073-080-081-089-090-097-098-242300-
   Southwest Minnesota

CITY           SKY/WX    TMP DP  RH WIND       PRES   REMARKS
MONTEVIDEO     TSTM      70  61  73 SW15G31   29.93R
GRANITE FALLS  TSTM      69  67  92 S10G16    29.93R VSB 3/4
CANBY          CLOUDY    71  68  90 CALM      29.88R
MARSHALL       TSTM      67  64  90 SW10      29.89S
REDWOOD FALLS  CLOUDY    80  66  62 SE12      29.88S
OLIVIA         CLOUDY    77  64  65 SE9       29.91R
PIPESTONE      LGT RAIN  66  64  94 S3        29.88F
WINDOM         TSTM      77  64  65 SW17G25   29.95R
WORTHINGTON    TSTM      67  65  93 S3        29.93F
JACKSON        CLOUDY    81  64  57 SE10G21   29.91F
TRACY          TSTM      68  65  92 SW13G21   29.92R
$$
MNZ065>067-074>077-082>085-091>093-242300-
   South Central Minnesota

CITY           SKY/WX    TMP DP  RH WIND       PRES   REMARKS
MANKATO        CLOUDY    80  66  62 SE16      29.95
ST JAMES       PTSUNNY   81  66  61 SE12G18   29.93R
FAIRMONT       CLOUDY    81  68  64 SE13G22   29.92S
GLENCOE        MOSUNNY   80  69  68 SE13G20   29.95R
FARIBAULT      SUNNY     77  66  69 E9G16     29.99R
OWATONNA       SUNNY     77  64  65 E13G18    29.98S
WASECA         CLOUDY    77  64  65 SE16G22   29.98R
ALBERT LEA     CLOUDY    79  66  65 SE12G18   29.98R
$$
MNZ078>079-086>088-094>096-242300-
   Southeast Minnesota

CITY           SKY/WX    TMP DP  RH WIND       PRES   REMARKS
ROCHESTER      CLOUDY    70  65  84 SE15      30.03F
RED WING       CLOUDY    70  63  78 SE12G21   30.02F
DODGE CENTER   SUNNY     73  64  73 SE14G21   30.02R
WINONA         CLOUDY    70  63  78 SE9       30.06S
AUSTIN         SUNNY     75  66  73 SE12      30.00R
PRESTON        CLOUDY    68  62  82 SE9G17    30.05F HAZE
$$
ABBREVIATIONS USED IN REMARKS
   TC - TEMPERATURES IN CELSIUS
  WCI - WIND CHILL INDEX
   HX - HEAT INDEX
  VSB - VISIBILITY
$$



USA.gov is the U.S. government's official web portal to all federal, state and local government web resources and services.